Location: Dilsberg
(49.3983°N, 8.8354°E)
Time: 09:38:54
(UTC+00:00)

Cosmos 1842 - Visible Passes

Search period start: 20 May 2026 00:00
Search period end: 30 May 2026 00:00
Orbit: 396 x 402 km, 82.5° (Epoch: 20 May)

Date Brightness Start Highest point End Pass type
(mag) Time Alt. Az. Time Alt. Az. Time Alt. Az.
20 May 4.4 20:47:04 17° ESE 20:47:44 18° E 20:49:59 10° NE visible
20 May 4.6 22:19:40 20° WSW 22:20:54 25° WNW 22:23:35 10° NNW visible
21 May 2.5 21:28:30 38° S 21:29:35 85° E 21:32:44 10° N visible
22 May 4.1 20:37:17 18° ESE 20:38:30 22° E 20:41:01 10° NE visible
22 May 4.9 22:09:51 13° WSW 22:11:45 21° WNW 22:14:15 10° NNW visible
23 May 2.7 21:18:33 24° SSW 21:20:19 77° W 21:23:29 10° N visible
24 May 3.8 20:27:11 15° SE 20:29:08 26° E 20:31:51 10° NNE visible
24 May 5.3 22:00:14 10° WSW 22:02:28 18° WNW 22:04:43 10° NNW visible
25 May 3.1 21:08:19 14° SSW 21:10:55 61° WNW 21:14:03 10° N visible
26 May 3.5 20:16:48 10° SSE 20:19:37 32° E 20:22:28 10° NNE visible
26 May 5.5 21:51:06 10° WSW 21:53:03 15° WNW 21:55:00 10° NNW visible
27 May 3.5 20:58:19 10° SSW 21:01:22 49° WNW 21:04:28 10° N visible
28 May 3.2 20:07:00 10° SSE 20:09:57 39° E 20:12:55 10° NNE visible
28 May 5.7 21:41:54 10° W 21:43:28 13° WNW 21:45:01 10° NW visible
29 May 4.0 20:48:41 10° SSW 20:51:40 40° WNW 20:54:40 10° N visible
